Location: Newark
(7.1028°S, 35.3258°W)
Time: 07:02:35
(UTC+00:00)

deb Explorer IX - Visible Passes

Search period start: 25 February 2020 00:00
Search period end: 06 March 2020 00:00
Orbit: 549 x 1099 km, 38.8° (Epoch: 24 February)

Date Brightness Start Highest point End Pass type
(mag) Time Alt. Az. Time Alt. Az. Time Alt. Az.
25 Feb ? 05:51:34 24° S 05:53:19 27° SE 05:58:39 10° E visible
25 Feb ? 07:34:11 10° WSW 07:40:54 65° NW 07:46:41 10° NE visible
25 Feb ? 22:07:48 10° WSW 22:11:14 16° SSW 22:14:56 10° S visible
26 Feb ? 05:32:05 26° SE 05:32:05 26° SE 05:36:24 10° E visible
26 Feb ? 07:13:33 19° WSW 07:18:28 64° NW 07:24:24 10° NE visible
26 Feb ? 21:45:45 10° WSW 21:48:52 15° SSW 21:52:13 10° S visible
27 Feb ? 05:12:32 16° E 05:12:32 16° E 05:14:07 10° E visible
27 Feb ? 06:53:59 44° W 06:56:00 63° NW 07:02:06 10° NE visible
27 Feb ? 21:23:45 10° WSW 21:26:30 14° SSW 21:29:27 10° S visible
28 Feb ? 06:34:16 58° NNW 06:34:16 58° NNW 06:39:47 10° NE visible
28 Feb ? 21:01:49 10° SW 21:04:10 13° SSW 21:06:40 10° S visible
29 Feb ? 06:14:22 30° NNE 06:14:22 30° NNE 06:17:26 10° NE visible
01 Mar ? 05:54:15 14° NE 05:54:15 14° NE 05:55:04 10° NE visible
